Vertical_Velocity
10 8 6 5 5 4 1 4 7 7 3 4 5 5 5 4 3 3 3 3 2 1 -0 -1 -1 -2 -2 -1 -1 -1 -3 -4 -4 -5 -5 -5 -4 -4 -4 -3 -3 -3 -3 -3 -3 -3 -3 -2 -2 -2 -1 -1 -0 -0 0 -0 -1 -1 -1 -2 -2 -2 -2 -1 -1 -0 -0 -0 -0 -0 -0 -1 -1 -1 -0 -0 -0 -1 -1 -1 -1 -1 -1 -1 -2 -2
9 7 4 4 5 5 1 3 6 7 4 3 3 4 4 4 3 3 4 4 4 2 0 -1 -2 -2 -3 -2 -1 -1 -2 -3 -4 -5 -5 -5 -4 -4 -4 -3 -3 -3 -3 -3 -3 -3 -3 -2 -2 -1 -1 -1 -1 -1 -1 -1 -1 -1 -2 -2 -2 -2 -2 -1 -1 -0 0 0 0 0 0 -0 -0 -1 -1 -1 -1 -1 -1 -0 -0 -1 -1 -1 -2 -2
6 4 1 3 5 5 3 4 5 6 4 3 3 3 3 2 2 3 4 3 2 2 1 -0 -1 -2 -2 -1 -1 -1 -1 -3 -4 -4 -5 -4 -4 -4 -3 -3 -2 -2 -3 -3 -3 -3 -2 -2 -2 -2 -2 -2 -1 -1 -1 -1 -1 -1 -2 -2 -1 -1 -1 -1 -1 -0 -0 -0 -0 -0 -0 -0 -1 -1 -1 -1 -1 -0 -0 -1 -0 -1 -1 -2 -2 -3
6 3 -0 1 2 3 5 6 5 4 4 3 2 2 2 1 1 1 3 2 1 0 1 2 1 0 -1 -1 -1 -0 -1 -2 -3 -4 -4 -4 -3 -3 -2 -2 -2 -2 -2 -3 -3 -2 -2 -2 -2 -2 -3 -2 -1 -1 -1 -1 -1 -1 -1 -1 -1 -1 -1 -1 -0 0 -0 -0 -0 -0 -1 -1 -1 -1 -1 -1 -1 -1 -1 -1 -1 -1 -1 -2 -3 -4
4 4 0 2 2 2 4 6 6 4 3 2 1 1 1 1 1 -0 -0 1 1 1 2 3 4 3 1 -1 -2 -2 -2 -2 -3 -3 -3 -3 -3 -2 -2 -2 -2 -2 -2 -2 -2 -2 -2 -2 -2 -2 -3 -2 -2 -1 -1 -1 -1 -1 -1 -1 -1 -1 -1 -0 -0 -0 -0 -0 -0 -0 -1 -1 -1 -1 -1 -1 -1 -1 -2 -2 -2 -1 -1 -2 -4 -4
2 3 2 4 3 2 3 4 4 4 2 -0 -1 0 1 1 1 1 0 1 1 2 3 4 5 4 2 -0 -2 -4 -4 -4 -3 -3 -3 -3 -2 -2 -2 -2 -2 -2 -2 -2 -2 -2 -2 -2 -2 -2 -2 -2 -1 -1 -1 -0 -0 -0 -0 -0 -0 -0 -0 -0 -0 -0 -1 -1 -1 -1 -1 -1 -1 -1 -1 -1 -1 -2 -2 -2 -2 -2 -2 -3 -2 -0
0 1 4 3 2 1 2 1 2 4 3 -2 -4 -3 -1 1 1 2 2 3 4 4 3 4 4 3 1 -1 -2 -4 -6 -6 -4 -3 -2 -3 -2 -2 -2 -2 -2 -2 -2 -2 -2 -2 -2 -2 -2 -2 -2 -2 -1 -1 -1 -0 -0 0 0 0 0 -0 -0 -0 -0 -1 -1 -1 -1 -1 -1 -1 -1 -1 -1 -1 -2 -2 -3 -2 -1 -1 -2 -3 -1 1
-1 -0 3 1 -0 -1 -0 0 2 3 4 -0 -3 -5 -4 -1 0 1 0 2 4 4 2 0 -0 0 0 -1 -3 -4 -4 -5 -5 -4 -2 -2 -2 -2 -2 -2 -2 -2 -2 -2 -2 -1 -2 -2 -2 -2 -2 -1 -1 -1 -0 -0 0 0 0 0 -0 -0 -1 -1 -1 -1 -1 -1 -1 -1 -1 -1 -1 -1 -1 -1 -2 -2 -1 -0 0 -1 -3 -3 -3 -2
-0 -1 -0 1 0 -1 -3 -3 0 4 4 1 -0 -1 -3 -3 -2 -1 -0 -1 -0 1 2 -1 -3 -3 -0 0 -2 -4 -3 -2 -4 -5 -5 -2 -1 -1 -2 -2 -2 -1 -1 -1 -1 -1 -1 -2 -2 -2 -1 -1 -1 -0 0 0 0 0 0 -0 -1 -1 -1 -1 -1 -1 -1 -1 -1 -1 -1 -1 -1 -1 -2 -1 -1 -1 -1 -1 -2 -2 -3 -3 -2 -2
-0 0 -1 -1 1 2 -0 -4 -2 3 6 3 2 2 2 -1 -3 -3 -3 -4 -4 -2 -1 -0 -2 -3 -2 2 1 -2 -5 -2 -1 -1 -5 -3 -1 -0 -1 -1 -1 -1 -1 -1 -1 -1 -1 -2 -2 -2 -1 -1 -0 -0 0 0 0 -0 -1 -1 -1 -1 -2 -1 -1 -1 -1 -1 -1 -1 -1 -1 -2 -2 -1 -1 -0 -0 -1 -2 -3 -3 -3 -2 -2 -1
-1 -0 1 -1 -1 1 3 0 -0 1 4 4 2 1 2 0 -1 -4 -9 -9 -7 -5 -4 -1 0 -0 -3 1 4 3 -3 -4 -1 1 0 -1 -1 -1 -1 -1 -1 -1 -1 -1 -1 -1 -2 -2 -2 -2 -1 -1 -0 -0 -0 -0 -1 -1 -2 -2 -2 -2 -2 -2 -2 -1 -1 -1 -1 -1 -1 -2 -2 -1 -1 -1 -0 -1 -2 -2 -2 -2 -2 -2 -2 -2
-1 -1 -0 -1 -1 -0 0 1 1 2 3 2 -0 -3 -5 -4 -3 -5 -10 -11 -9 -6 -5 -3 -0 1 -0 -1 2 4 2 -2 -2 -1 1 2 1 -1 -3 -1 -1 -1 -3 -2 -2 -2 -4 -3 -2 -1 -1 -1 -0 -1 -1 -1 -2 -2 -2 -2 -2 -2 -2 -2 -1 -1 -1 -1 -1 -1 -1 -1 -1 -0 -1 -1 -1 -2 -2 -2 -2 -2 -2 -2 -2 -2
-1 0 -0 -1 -0 1 2 1 1 0 0 0 -1 -3 -5 -3 -3 -5 -8 -9 -7 -4 -5 -6 -3 1 3 2 1 0 0 -0 -0 -0 1 2 1 -1 -3 -0 0 -1 -3 -2 -2 -3 -5 -4 -2 -1 -1 -1 -1 -1 -1 -2 -2 -2 -2 -2 -2 -2 -2 -2 -1 -1 -1 -1 -1 -1 -1 -0 -0 -0 -1 -2 -2 -2 -1 -1 -1 -1 -1 -1 -2 -2
-1 1 1 -0 -0 1 3 2 1 -1 -2 -2 -2 -3 -3 -1 -1 -4 -8 -8 -5 -2 -4 -7 -5 -1 3 5 5 3 0 -1 -1 1 3 4 2 -2 -4 0 2 0 -4 -2 -1 -2 -5 -4 -2 -1 -0 -0 -0 -0 -1 -1 -1 -2 -2 -2 -2 -2 -2 -2 -1 -1 -1 -1 -1 -0 0 -0 -1 -2 -2 -2 -2 -1 -1 -0 -0 -1 -1 -1 -1 -2
0 1 1 -0 -0 1 1 -1 -3 -4 -4 -1 -1 -3 -4 -2 -1 -1 -5 -7 -4 -2 -3 -7 -6 -2 3 5 6 6 5 3 1 0 2 6 5 0 -5 -0 2 2 -3 -2 -2 -1 -4 -4 -2 -0 1 1 0 -0 -1 -1 -2 -2 -3 -3 -3 -2 -2 -2 -2 -2 -1 -1 -0 -0 -0 -1 -2 -2 -2 -1 -1 -0 0 0 -0 -0 -1 -1 -2 -2
1 3 1 -1 -1 -1 0 -1 -3 -5 -5 -1 2 2 0 -3 -1 0 0 -4 -4 -2 -2 -6 -8 -5 1 6 5 3 0 4 4 3 -1 5 7 4 -4 -1 2 3 -1 -3 -3 -2 -3 -2 -1 -0 1 1 0 -1 -1 -2 -3 -3 -3 -3 -3 -3 -2 -2 -2 -2 -1 -1 -1 -1 -2 -2 -2 -2 -1 -0 0 0 0 -0 -1 -1 -1 -2 -3 -3
0 0 -0 -1 -3 -4 -1 -0 -1 -2 -2 -1 1 3 5 1 0 1 2 -0 -2 -3 -1 -4 -8 -9 -6 2 4 2 -6 -3 1 3 -0 3 6 6 -0 -0 1 1 -1 -3 -3 -3 -2 -1 -0 0 0 0 -0 -1 -1 -2 -3 -3 -3 -3 -3 -3 -3 -2 -2 -1 -1 -1 -1 -2 -2 -2 -2 -1 0 0 0 -0 -1 -1 -1 -1 -2 -2 -0 3
0 -0 -2 -2 -2 -3 -2 -2 -0 2 4 2 -1 -2 0 3 3 2 2 2 0 -1 -2 -2 -4 -7 -10 -4 2 4 -3 -5 -2 1 -1 1 4 5 2 0 -0 -1 -1 -2 -3 -3 -2 -1 0 0 0 -0 -1 -1 -2 -2 -2 -2 -2 -2 -2 -2 -2 -1 -1 -1 -0 -1 -1 -2 -2 -1 -0 1 1 0 -0 -1 -1 -1 -1 -1 -1 1 3 6
-1 1 1 -1 -1 -0 0 -1 1 4 6 3 0 -2 -3 1 3 3 1 2 1 -0 -2 -3 -2 -2 -6 -6 -2 2 -1 -3 -2 -1 -2 -2 1 3 2 -1 -1 -2 -2 -2 -2 -2 -1 -0 0 0 -0 -1 -1 -1 -1 -1 -2 -2 -2 -2 -2 -1 -1 -1 -0 0 -0 -1 -1 -1 -1 0 1 1 0 -0 -1 -1 -1 -1 -1 -1 -1 1 1 1
-2 0 3 1 -0 -1 1 2 3 4 3 2 1 1 -2 -1 0 2 1 0 0 0 -0 -3 -3 -1 -1 -2 -1 -0 -1 -2 -1 -1 -3 -3 -1 1 1 -1 -2 -2 -1 -1 -1 -1 0 1 1 0 -0 -1 -1 -1 -1 -2 -2 -2 -2 -2 -2 -1 -0 0 0 0 -0 -1 -1 -1 0 1 1 0 -0 -1 -1 -1 -1 -1 -1 -2 -3 -3 -3 -2
-1 -0 4 6 3 -1 -2 2 5 5 3 2 1 1 -1 -2 -2 -1 1 -1 -1 0 2 -1 -2 -1 1 1 1 1 -1 -1 -1 -2 -4 -4 -2 -0 1 -0 -1 -1 0 1 0 0 1 1 1 0 -0 -1 -1 -1 -1 -2 -2 -3 -3 -2 -1 -1 0 1 1 0 -0 -1 -1 -0 0 0 0 -0 -1 -0 -0 -0 -1 -2 -3 -4 -3 -2 -1 -1
-1 -1 4 9 7 2 -2 1 4 5 4 3 2 1 0 -1 -2 -1 1 -0 -0 1 3 2 1 0 1 2 2 2 0 0 0 -1 -3 -4 -3 -1 1 -0 0 1 2 2 2 1 1 1 1 0 -0 -1 -1 -1 -2 -3 -3 -4 -3 -2 -1 -0 1 1 1 0 -0 -1 -0 0 0 0 -0 -1 -0 -0 -1 -2 -3 -2 -1 -0 -1 -1 -1 -1
1 1 4 7 7 5 2 2 2 4 5 4 2 1 1 -1 -2 -1 1 1 2 3 5 4 3 1 1 3 4 4 2 2 2 1 -0 -1 -1 0 0 0 1 2 2 3 3 2 1 1 1 0 -0 -1 -1 -2 -3 -3 -4 -4 -4 -3 -1 0 2 1 1 0 -1 -0 -0 -0 -0 -0 -1 -1 -0 -1 -2 -3 -2 -2 -2 -2 -2 -1 -1 -1
4 4 5 6 6 5 4 2 1 1 3 3 2 1 1 -0 -1 -1 -0 1 4 5 7 5 4 2 1 2 4 4 2 1 2 2 1 0 1 1 1 1 1 1 1 1 2 2 2 2 1 1 0 -1 -2 -2 -3 -4 -4 -4 -4 -3 -1 1 2 1 1 0 -0 -0 -0 -1 -1 -1 -1 -1 -0 -1 -1 -2 -1 -2 -1 -1 -1 -1 -0 -0
4 5 6 6 6 5 4 2 1 1 2 2 1 1 2 2 2 1 1 2 3 5 6 5 4 3 2 2 2 2 1 1 2 3 3 1 0 0 2 2 1 0 -1 -0 1 2 2 2 2 1 0 -1 -2 -3 -4 -4 -5 -5 -4 -2 -1 1 2 2 1 0 -0 -1 -1 -1 -1 -1 -1 -1 -1 -1 -0 -0 -1 -1 -1 -1 -1 -0 -0 -0
4 5 6 6 5 5 4 3 2 2 2 2 1 0 1 2 3 3 1 1 1 2 4 4 4 3 2 3 3 2 2 2 2 3 4 3 1 0 0 1 1 1 -1 -0 1 2 2 2 2 2 1 -1 -2 -3 -4 -5 -5 -5 -4 -2 -0 1 2 1 1 0 -0 -1 -1 -1 -2 -2 -1 -1 -1 -1 -0 0 0 0 0 0 0 0 -0 -0
4 4 4 4 4 3 2 1 1 1 2 2 2 0 -1 1 3 4 3 2 2 2 1 -1 -2 -1 -0 3 4 5 5 4 3 2 2 3 1 -0 -1 -0 1 1 1 1 1 2 2 2 3 3 2 0 -1 -2 -4 -5 -5 -5 -4 -2 -0 1 2 2 1 0 -0 -1 -1 -2 -2 -1 -1 -1 -1 -1 -1 -1 -1 -0 -0 0 0 -0 -0 -1
4 4 4 4 3 3 2 1 0 -0 1 2 2 2 0 1 2 4 3 5 6 6 3 -0 -2 -2 -2 1 3 5 6 5 3 -0 -1 -0 -1 -1 -2 -1 0 1 1 1 2 2 3 3 3 3 2 1 -0 -1 -3 -5 -5 -5 -4 -2 -1 1 2 2 1 0 -1 -1 -1 -1 -1 -1 -1 -2 -2 -2 -2 -2 -2 -1 -1 -0 -0 -1 -1 -1
4 4 4 4 3 2 2 1 0 0 0 1 2 3 2 2 2 2 1 4 6 7 3 0 -1 -2 -3 -2 0 2 4 3 1 -1 -2 -2 -3 -3 -2 -0 0 0 2 2 1 2 3 3 3 3 2 1 0 -1 -3 -4 -5 -4 -4 -2 -1 0 1 2 1 0 -1 -1 -1 -1 -1 -1 -2 -2 -2 -2 -2 -2 -2 -1 -1 -1 -0 -0 -1 -1
4 4 4 4 3 2 1 1 1 1 2 2 2 2 2 2 2 1 -0 1 2 1 -1 -2 -1 -1 -1 -1 -1 -1 -1 -1 1 3 3 1 -2 -4 -3 -1 0 1 3 2 1 0 1 3 4 4 3 1 0 -1 -3 -4 -5 -4 -3 -2 -1 0 1 1 1 -0 -1 -2 -2 -1 -1 -2 -2 -2 -2 -2 -2 -2 -2 -1 -1 -1 -1 -1 -1 -1
4 4 3 3 2 1 1 1 2 2 2 2 2 2 2 2 2 1 0 0 0 0 -0 0 1 2 3 2 2 0 -4 -1 4 8 7 4 -0 -3 -2 0 0 1 3 3 2 -1 -2 1 4 5 4 3 1 -1 -2 -3 -4 -4 -4 -2 -1 0 1 1 1 -0 -2 -2 -2 -2 -2 -2 -2 -2 -2 -2 -2 -2 -2 -1 -1 -1 -1 -1 -1 -1
2 2 1 1 1 1 1 1 1 1 1 1 1 1 1 2 2 1 1 1 2 2 2 2 2 3 4 4 4 3 0 4 6 7 6 3 -0 -3 -1 2 2 2 3 4 3 1 -2 -2 -0 3 5 4 3 1 -1 -2 -3 -4 -4 -2 -1 0 1 1 0 -1 -2 -2 -1 -1 -1 -2 -2 -2 -2 -2 -1 -1 -1 -1 -2 -2 -2 -1 -1 -1
0 0 0 1 1 1 0 0 -0 -0 -0 -0 0 0 1 1 1 1 1 1 1 1 1 1 1 1 2 3 3 2 2 4 5 4 3 3 2 1 1 3 4 4 3 3 3 1 -1 -3 -3 -1 2 4 4 3 1 -1 -2 -3 -4 -2 -1 -0 1 1 0 -1 -1 -1 -1 -1 -1 -1 -2 -2 -2 -2 -1 -1 -1 -1 -2 -2 -2 -2 -1 -1
0 0 1 1 1 1 0 -0 -1 -1 -1 -0 -0 -0 -1 -1 -1 -1 -1 -0 -0 -0 0 0 0 0 1 1 0 0 1 3 4 4 4 6 6 5 3 4 4 4 3 2 1 0 -1 -3 -4 -3 -2 1 4 5 3 1 -2 -3 -4 -3 -2 -1 0 0 0 -0 -1 -1 -1 -1 -1 -1 -1 -1 -1 -1 -1 -1 -1 -1 -1 -2 -2 -2 -2 -2
0 0 1 1 1 0 -0 -0 -1 -1 -1 -1 -1 -1 -1 -1 -1 -1 -1 -1 -1 -0 0 0 0 0 0 0 0 0 2 4 4 5 5 6 5 4 3 3 3 2 2 0 -1 -1 -3 -4 -4 -4 -3 -1 2 4 5 2 -0 -2 -4 -3 -2 -2 -1 -1 -0 -0 -0 -0 -0 -0 -1 -1 -1 -1 -1 -1 -1 -1 -1 -1 -1 -1 -2 -2 -3 -3
0 1 1 1 1 0 -0 -0 -1 -1 -1 -1 -1 -1 -1 -1 -1 -1 -1 -1 -1 -1 -0 -0 -0 -1 -0 -0 0 1 2 2 3 3 3 3 2 1 1 1 0 1 1 -1 -2 -3 -3 -3 -4 -3 -2 -1 1 3 4 3 1 -1 -2 -3 -3 -3 -3 -2 -1 -1 0 1 1 0 -0 -1 -1 -1 -2 -1 -1 -1 -1 -1 -1 -1 -1 -2 -3 -3
0 0 1 0 0 0 -0 -0 -1 -1 -1 -0 -0 0 0 -0 -0 -1 -1 -1 -1 -1 -1 -1 -1 -1 -1 0 1 1 2 2 2 1 1 1 1 1 1 0 0 0 0 -1 -2 -2 -2 -2 -2 -2 -1 -0 0 1 2 2 2 1 -0 -2 -3 -4 -4 -3 -2 -1 0 1 1 1 0 -1 -1 -1 -2 -1 -1 -1 -1 -1 -1 -1 -1 -1 -2 -2
0 0 0 1 0 0 -0 -1 -1 -1 -1 -0 0 0 0 -0 -1 -1 -1 -1 -1 -1 -1 -1 -1 -1 -0 0 1 1 2 2 2 2 1 1 1 1 1 1 0 0 0 -0 -1 -1 -1 -1 -1 -1 -1 -0 0 1 1 1 2 2 1 -1 -3 -4 -5 -4 -2 -1 0 1 1 1 0 -1 -1 -2 -2 -2 -1 -1 -1 -1 -0 -0 -0 0 -0 -0
0 1 1 1 0 -0 -1 -2 -2 -1 -1 -0 -0 -0 -1 -1 -1 -1 -1 -0 0 0 0 0 -0 0 0 0 0 0 0 0 0 0 0 1 1 1 2 2 1 1 0 -0 -0 -1 -1 -1 -1 -1 -1 -1 0 0 0 1 1 2 2 0 -2 -4 -5 -3 -2 -1 0 0 0 0 -0 -1 -2 -2 -2 -2 -2 -2 -1 -0 0 1 1 1 1 1
1 1 1 0 -0 -1 -2 -2 -2 -1 -0 -0 -1 -1 -1 -1 -1 -1 -1 -0 0 1 1 1 0 0 0 0 0 0 -0 -0 0 0 0 1 1 2 3 3 3 2 1 0 -0 -0 -0 -1 -2 -2 -1 0 1 1 0 0 0 1 2 1 0 -1 -3 -2 -1 -0 0 -0 -1 -1 -1 -2 -2 -2 -2 -3 -3 -3 -2 -1 0 1 1 1 0 1
1 1 0 -0 -1 -2 -2 -2 -1 -1 0 -0 -1 -1 -1 -1 -1 -2 -2 -2 -2 -2 -1 -1 -2 -2 -2 -1 -1 -1 -0 0 1 1 1 1 2 3 3 4 3 2 1 1 0 -0 -0 -0 -1 -2 -1 -0 0 1 0 0 0 0 0 1 1 0 -0 -0 -0 -0 -1 -1 -1 -2 -2 -2 -2 -2 -2 -3 -4 -4 -3 -1 -0 1 1 1 0 0
0 -0 -1 -1 -1 -1 -1 -1 -1 -1 0 -0 -1 -1 -1 -0 -1 -1 -2 -3 -3 -4 -4 -4 -4 -5 -6 -6 -6 -5 -3 -2 -1 0 0 1 1 2 3 3 2 1 1 0 -0 -1 -1 -0 -1 -1 -1 -0 0 0 0 0 0 0 -0 -0 1 2 2 2 1 -0 -1 -2 -2 -2 -1 -1 -1 -1 -2 -3 -3 -4 -3 -1 -1 0 0 0 0 -0
-0 -1 -1 -2 -2 -2 -1 -1 -1 -1 -1 -1 -1 -0 -0 -0 -0 -0 -1 -1 -2 -3 -3 -3 -3 -4 -4 -6 -7 -7 -6 -5 -4 -3 -2 -1 -0 0 1 1 0 0 0 0 -0 -1 -2 -1 -1 -1 -1 -0 0 0 1 1 0 -0 -1 -1 -0 1 2 3 2 1 -0 -1 -2 -2 -1 -1 -1 -1 -2 -3 -3 -3 -2 -1 -1 -0 -0 -1 -1 -1
-1 -1 -1 -2 -2 -2 -1 -2 -2 -2 -1 -0 0 0 0 0 0 -0 -0 -1 -1 -1 -1 -2 -2 -2 -1 -1 -2 -3 -3 -3 -3 -4 -4 -4 -2 -1 -0 -0 -1 -1 -0 0 0 -1 -2 -2 -1 -1 -0 -0 0 0 1 1 0 -0 -1 -1 -1 -1 -1 -0 1 1 0 -0 -1 -1 -1 -1 -1 -1 -2 -3 -3 -3 -2 -1 -0 -0 -1 -1 -1 -1
-2 -2 -1 -1 -1 -1 -1 -1 -1 -1 0 0 0 0 -0 -0 -0 -1 -1 -1 -1 -1 -1 -1 -1 -2 -1 -0 0 1 2 2 1 -0 -3 -4 -3 -2 -0 -0 -1 -1 -1 0 0 0 0 -0 -1 -1 -0 0 0 0 0 0 0 -0 -0 -1 -2 -2 -3 -2 -1 -0 0 -0 -1 -1 -1 -1 -1 -1 -2 -2 -3 -3 -2 -0 0 0 -0 -1 -1 -1
-2 -2 -1 -0 0 1 0 -1 -0 0 1 0 -0 -0 -1 -1 -1 -1 -1 -1 -1 -1 -2 -2 -2 -2 -2 -1 -0 1 3 4 4 3 -0 -3 -3 -2 -0 0 -0 -0 -0 -0 0 0 1 0 0 1 1 1 0 -0 -1 -1 -1 -0 -0 -1 -1 -2 -2 -2 -1 -1 -1 -0 -0 -0 -0 -0 -0 -1 -1 -1 -2 -2 -1 -0 0 0 0 0 -0 0
-0 -0 0 0 1 1 0 -0 0 0 1 0 0 -0 -0 -0 -0 -0 -0 -1 -1 -1 -2 -2 -2 -2 -2 -3 -2 -1 1 3 3 3 -0 -2 -2 -1 -0 -0 -0 -0 0 0 0 1 1 1 1 1 1 1 0 -0 -1 -1 -1 -1 -1 -1 -1 -1 -1 -1 -1 -1 -1 -1 -0 -0 0 0 0 0 0 -0 -1 -1 -1 -1 0 0 0 0 0 0
0 0 0 0 0 0 -0 -1 -0 0 1 1 1 1 1 1 0 0 -1 -1 -1 -1 -1 -2 -2 -2 -3 -3 -3 -2 -0 1 2 1 -1 -2 -1 -1 0 0 -0 -0 0 1 1 1 1 1 1 1 1 0 0 -0 -1 -1 -1 -1 -1 -0 -0 -0 0 0 -0 -1 -1 -1 -1 -1 -0 -0 -0 0 0 0 0 0 -0 0 0 0 0 0 1 1
-1 -1 -1 -1 -1 -1 -1 -1 -0 0 1 1 1 1 1 0 -0 -1 -1 -2 -2 -2 -1 -1 -1 -2 -2 -3 -2 -2 -0 2 2 1 -1 -1 -1 -1 -0 0 1 1 1 1 2 2 1 1 1 1 1 0 0 -0 -0 -1 -1 -1 -1 -0 -0 0 0 0 -0 -1 -1 -1 -1 -1 -1 -1 -1 -1 -0 0 0 0 0 0 0 0 0 0 0 1
-2 -2 -2 -2 -1 -1 -1 -1 -0 -0 0 0 0 -0 -1 -1 -1 -1 -1 -2 -2 -2 -2 -1 -1 -1 -1 -2 -2 -1 0 2 3 2 -1 -0 -0 -1 -1 -0 0 1 1 1 1 1 0 0 0 1 1 1 0 -0 -0 -1 -1 -0 -0 -0 -0 -0 -0 -0 -1 -1 -1 -0 -0 -0 -1 -1 -1 -1 -0 0 1 1 0 0 0 0 0 0 0 1
-1 -1 -1 -1 -1 -1 -0 -0 -0 -0 -0 -1 -1 -1 -1 -2 -2 -1 -1 -1 -1 -2 -2 -2 -1 -1 -1 -2 -2 -1 0 3 3 2 -1 -0 -0 -1 -1 -1 -0 0 0 -0 -1 -1 -1 -2 -2 -1 -1 0 0 0 -0 -0 -0 -0 0 0 -0 -1 -1 -1 -1 -1 -0 -0 0 -0 -0 -1 -1 -1 0 1 1 1 1 1 0 0 0 0 1 1
Height
3039 3038 3037 3036 3035 3034 3033 3032 3031 3029 3028 3027 3026 3025 3023 3022 3020 3019 3018 3017 3015 3014 3012 3011 3009 3008 3006 3005 3003 3001 2999 2997 2995 2993 2990 2988 2986 2984 2983 2981 2979 2978 2976 2974 2973 2971 2969 2968 2967 2965 2964 2963 2962 2961 2960 2959 2958 2956 2955 2954 2953 2953 2952 2951 2950 2950 2949 2948 2948 2947 2946 2945 2945 2944 2944 2943 2942 2942 2941 2940 2940 2939 2938 2938 2937 2936
3037 3036 3034 3033 3032 3031 3029 3028 3028 3026 3024 3023 3022 3021 3019 3018 3017 3016 3015 3014 3012 3011 3009 3008 3006 3004 3003 3001 2999 2997 2995 2993 2990 2988 2986 2984 2982 2980 2978 2976 2975 2973 2971 2970 2968 2967 2965 2964 2963 2962 2960 2959 2958 2957 2956 2955 2954 2953 2952 2951 2950 2949 2948 2948 2947 2947 2946 2945 2945 2944 2943 2943 2942 2941 2941 2940 2939 2939 2938 2937 2937 2936 2935 2935 2934 2933
3034 3033 3031 3030 3029 3028 3026 3025 3024 3023 3021 3019 3018 3017 3016 3014 3013 3012 3012 3010 3009 3007 3006 3004 3003 3001 2999 2998 2996 2993 2991 2988 2986 2984 2982 2980 2978 2976 2974 2972 2970 2969 2967 2965 2964 2963 2962 2960 2959 2958 2957 2956 2955 2954 2953 2952 2951 2950 2949 2948 2947 2946 2946 2945 2944 2944 2943 2943 2942 2941 2940 2940 2939 2938 2938 2937 2937 2936 2935 2934 2934 2933 2933 2932 2931 2930
3031 3029 3028 3027 3025 3024 3023 3022 3020 3018 3017 3016 3014 3013 3012 3011 3009 3008 3007 3006 3005 3003 3002 3001 2999 2997 2995 2993 2992 2989 2987 2984 2982 2980 2978 2975 2973 2971 2970 2968 2966 2965 2963 2962 2960 2959 2958 2957 2956 2955 2953 2953 2952 2951 2950 2949 2948 2947 2946 2945 2944 2944 2943 2942 2942 2941 2940 2940 2939 2938 2938 2937 2936 2935 2935 2934 2934 2933 2932 2932 2931 2930 2929 2929 2928 2927
3027 3025 3024 3023 3022 3020 3019 3018 3016 3015 3013 3012 3011 3009 3008 3007 3005 3004 3003 3002 3001 3000 2998 2997 2996 2994 2992 2989 2987 2985 2983 2980 2978 2976 2973 2971 2969 2968 2966 2964 2963 2961 2960 2958 2957 2956 2955 2954 2953 2952 2951 2950 2949 2948 2947 2946 2945 2944 2943 2943 2942 2941 2940 2940 2939 2938 2938 2937 2937 2936 2935 2934 2933 2933 2932 2931 2931 2930 2929 2928 2928 2927 2926 2925 2924 2924
3023 3022 3020 3019 3018 3016 3015 3013 3012 3011 3009 3008 3007 3005 3004 3003 3002 3001 2999 2998 2997 2996 2994 2993 2992 2990 2988 2985 2982 2980 2978 2976 2973 2971 2969 2967 2965 2964 2962 2961 2959 2958 2957 2955 2954 2953 2952 2951 2950 2949 2948 2947 2946 2945 2944 2943 2943 2942 2941 2940 2940 2939 2938 2938 2937 2936 2935 2935 2934 2933 2932 2931 2931 2930 2929 2928 2928 2927 2926 2925 2925 2924 2923 2922 2922 2921
3019 3018 3017 3015 3013 3012 3011 3010 3008 3007 3006 3004 3002 3001 3000 2999 2998 2997 2995 2994 2993 2992 2990 2989 2987 2986 2983 2980 2978 2975 2973 2971 2969 2967 2965 2963 2962 2960 2958 2957 2956 2955 2954 2953 2952 2951 2950 2949 2948 2947 2946 2945 2944 2943 2942 2941 2940 2940 2939 2938 2938 2937 2936 2935 2934 2934 2933 2932 2931 2930 2929 2928 2928 2927 2927 2926 2925 2924 2923 2922 2922 2921 2920 2919 2918 2918
3015 3014 3013 3011 3009 3008 3007 3006 3005 3004 3002 3000 2998 2997 2996 2994 2993 2992 2991 2990 2988 2987 2986 2984 2982 2980 2978 2976 2973 2970 2968 2966 2964 2963 2961 2959 2958 2957 2955 2954 2953 2952 2951 2950 2949 2948 2948 2947 2945 2944 2943 2943 2942 2941 2940 2939 2938 2938 2937 2936 2935 2935 2934 2933 2932 2931 2930 2929 2928 2928 2927 2926 2925 2924 2923 2923 2922 2921 2921 2920 2919 2918 2917 2916 2915 2914
3012 3010 3008 3007 3006 3004 3002 3001 3000 3000 2998 2996 2994 2993 2992 2990 2989 2988 2987 2985 2983 2982 2981 2979 2977 2975 2973 2972 2969 2967 2964 2962 2960 2959 2957 2956 2954 2953 2953 2952 2951 2950 2949 2948 2948 2947 2945 2944 2943 2942 2942 2941 2940 2939 2938 2938 2937 2936 2935 2934 2933 2932 2931 2930 2929 2928 2928 2927 2926 2925 2924 2923 2923 2922 2921 2920 2919 2918 2918 2917 2916 2914 2913 2913 2912 2911
3008 3006 3005 3003 3002 3001 2999 2997 2996 2995 2994 2993 2991 2989 2988 2987 2985 2983 2982 2980 2979 2977 2976 2974 2973 2971 2968 2967 2965 2963 2961 2958 2956 2955 2954 2953 2952 2951 2950 2949 2948 2948 2947 2946 2945 2944 2943 2942 2941 2940 2940 2939 2938 2937 2937 2936 2935 2934 2933 2932 2931 2930 2929 2928 2927 2926 2925 2924 2923 2922 2922 2921 2920 2919 2918 2917 2916 2916 2914 2913 2912 2911 2911 2910 2909 2908
3003 3002 3001 2999 2998 2996 2995 2994 2992 2991 2990 2988 2987 2985 2983 2983 2981 2979 2976 2974 2973 2972 2971 2969 2968 2967 2965 2963 2961 2959 2957 2955 2953 2952 2951 2950 2949 2948 2947 2947 2946 2946 2945 2944 2943 2942 2941 2940 2939 2938 2938 2937 2936 2936 2935 2934 2933 2932 2931 2930 2929 2928 2927 2926 2925 2924 2923 2922 2921 2920 2919 2918 2917 2916 2915 2914 2913 2913 2912 2911 2910 2909 2908 2907 2906 2905
3000 2998 2997 2995 2994 2992 2991 2989 2988 2987 2986 2984 2983 2981 2979 2977 2976 2974 2972 2969 2968 2967 2966 2964 2963 2962 2962 2960 2958 2955 2953 2952 2951 2950 2948 2948 2947 2946 2945 2944 2944 2943 2943 2942 2941 2940 2939 2938 2937 2937 2936 2935 2934 2933 2933 2932 2931 2930 2929 2928 2927 2926 2925 2923 2923 2922 2920 2919 2918 2918 2917 2916 2915 2914 2913 2912 2911 2910 2909 2908 2907 2906 2905 2904 2903 2902
2996 2995 2993 2991 2990 2989 2987 2986 2984 2983 2981 2980 2979 2978 2976 2973 2971 2969 2967 2965 2964 2963 2962 2960 2959 2958 2958 2956 2954 2953 2951 2949 2948 2947 2947 2946 2945 2944 2943 2943 2942 2941 2941 2940 2939 2938 2937 2936 2935 2935 2934 2933 2933 2932 2931 2930 2929 2928 2927 2926 2925 2923 2923 2921 2920 2919 2918 2917 2916 2915 2914 2913 2912 2911 2910 2909 2908 2908 2907 2906 2905 2904 2903 2902 2901 2900
2993 2991 2989 2988 2986 2985 2984 2982 2981 2979 2978 2977 2975 2973 2972 2970 2968 2966 2963 2961 2960 2959 2958 2957 2955 2954 2954 2953 2952 2950 2948 2947 2946 2945 2944 2943 2943 2942 2941 2940 2940 2939 2939 2938 2937 2936 2935 2934 2933 2933 2933 2932 2931 2930 2929 2928 2927 2926 2925 2924 2923 2922 2920 2919 2918 2917 2916 2915 2914 2913 2912 2911 2910 2909 2908 2907 2907 2906 2905 2904 2903 2903 2902 2900 2899 2898
2989 2988 2986 2984 2983 2981 2980 2978 2977 2975 2973 2973 2971 2970 2968 2965 2963 2962 2960 2958 2956 2955 2954 2953 2952 2951 2951 2951 2950 2948 2946 2945 2944 2943 2943 2942 2941 2940 2940 2939 2938 2938 2937 2936 2935 2934 2933 2933 2932 2931 2931 2930 2929 2928 2927 2926 2925 2924 2923 2922 2921 2920 2918 2917 2916 2914 2913 2912 2911 2910 2909 2908 2908 2907 2906 2905 2905 2904 2903 2903 2902 2901 2900 2899 2898 2897
2985 2984 2982 2980 2979 2978 2976 2975 2973 2971 2969 2968 2967 2966 2964 2962 2960 2958 2957 2955 2953 2952 2951 2949 2948 2948 2947 2947 2947 2946 2944 2942 2941 2941 2941 2940 2939 2938 2938 2937 2936 2936 2935 2934 2933 2932 2932 2931 2930 2930 2929 2928 2927 2926 2925 2924 2923 2922 2921 2920 2919 2918 2916 2915 2913 2912 2911 2910 2909 2908 2907 2906 2906 2905 2904 2904 2903 2903 2902 2901 2900 2899 2898 2897 2896 2895
2982 2980 2978 2976 2975 2973 2972 2971 2969 2967 2966 2965 2963 2962 2960 2959 2957 2955 2953 2952 2950 2949 2947 2946 2945 2945 2943 2943 2943 2943 2942 2940 2939 2938 2938 2938 2938 2937 2936 2936 2934 2933 2933 2933 2932 2931 2930 2929 2928 2928 2927 2926 2925 2924 2923 2923 2921 2920 2919 2918 2917 2915 2914 2912 2911 2910 2909 2908 2907 2906 2905 2904 2904 2903 2903 2902 2902 2901 2900 2899 2898 2897 2896 2896 2895 2894
2978 2976 2974 2973 2971 2970 2968 2967 2966 2964 2963 2961 2959 2958 2956 2955 2953 2952 2951 2949 2947 2946 2944 2943 2942 2942 2942 2941 2939 2939 2939 2938 2937 2935 2936 2936 2935 2935 2934 2933 2932 2931 2931 2930 2929 2929 2928 2928 2927 2926 2925 2924 2923 2923 2922 2921 2919 2918 2917 2916 2915 2913 2912 2910 2909 2908 2907 2906 2905 2904 2903 2903 2903 2902 2901 2901 2900 2899 2898 2897 2897 2896 2895 2895 2894 2893
2974 2973 2971 2970 2968 2966 2965 2964 2963 2961 2959 2957 2955 2954 2952 2951 2950 2949 2947 2946 2945 2943 2942 2941 2940 2939 2939 2938 2937 2936 2937 2936 2935 2933 2933 2933 2933 2932 2932 2931 2930 2929 2929 2928 2928 2927 2926 2926 2925 2924 2923 2923 2922 2921 2920 2919 2918 2917 2915 2914 2913 2911 2910 2908 2907 2906 2905 2904 2903 2903 2902 2901 2901 2900 2899 2899 2898 2897 2897 2896 2895 2895 2894 2893 2892 2890
2970 2969 2968 2967 2965 2963 2961 2960 2959 2958 2956 2953 2951 2950 2949 2948 2946 2945 2944 2943 2942 2941 2939 2939 2938 2937 2937 2936 2935 2934 2934 2934 2933 2931 2931 2930 2930 2930 2929 2929 2928 2928 2927 2927 2926 2926 2925 2924 2923 2923 2922 2921 2920 2919 2918 2917 2916 2915 2913 2912 2911 2909 2908 2906 2905 2904 2903 2903 2902 2901 2901 2900 2899 2898 2898 2897 2897 2896 2895 2895 2894 2893 2892 2890 2889 2888
2967 2965 2964 2964 2962 2960 2958 2956 2955 2954 2952 2950 2948 2947 2945 2944 2943 2942 2941 2940 2939 2938 2937 2937 2936 2935 2935 2934 2933 2933 2932 2932 2931 2929 2929 2928 2928 2928 2928 2927 2927 2926 2926 2926 2925 2924 2923 2923 2922 2921 2920 2919 2918 2917 2916 2915 2914 2913 2912 2910 2909 2907 2906 2905 2903 2903 2902 2901 2900 2900 2899 2898 2898 2897 2896 2896 2895 2895 2894 2893 2891 2890 2889 2889 2888 2887
2964 2962 2961 2960 2958 2956 2954 2953 2951 2950 2949 2948 2946 2944 2942 2941 2940 2939 2938 2938 2937 2936 2935 2935 2934 2933 2933 2932 2931 2931 2930 2930 2929 2928 2927 2927 2927 2926 2926 2925 2925 2925 2924 2924 2923 2923 2922 2921 2920 2919 2918 2917 2916 2915 2914 2913 2912 2911 2910 2908 2907 2905 2904 2903 2902 2901 2900 2899 2899 2898 2898 2897 2896 2895 2895 2894 2894 2893 2892 2891 2890 2889 2888 2888 2887 2886
2961 2959 2958 2956 2955 2953 2951 2949 2948 2947 2945 2944 2943 2941 2940 2939 2938 2937 2936 2936 2935 2934 2933 2933 2932 2931 2931 2930 2930 2929 2928 2928 2927 2927 2926 2925 2925 2925 2924 2924 2923 2923 2923 2923 2922 2921 2920 2919 2918 2917 2916 2915 2914 2913 2912 2911 2910 2909 2908 2906 2905 2904 2903 2901 2900 2899 2899 2898 2897 2897 2896 2895 2895 2894 2893 2893 2892 2891 2890 2889 2888 2888 2887 2886 2885 2885
2957 2956 2954 2953 2951 2950 2948 2947 2945 2943 2941 2940 2939 2938 2937 2936 2935 2934 2934 2933 2933 2932 2931 2930 2929 2929 2928 2928 2928 2927 2926 2926 2925 2925 2924 2924 2923 2923 2923 2922 2922 2921 2921 2921 2920 2919 2918 2918 2917 2915 2914 2913 2912 2911 2910 2909 2908 2907 2906 2904 2903 2902 2901 2900 2899 2898 2897 2897 2896 2895 2894 2894 2893 2893 2892 2891 2890 2889 2888 2888 2887 2886 2885 2885 2884 2883
2954 2952 2951 2949 2948 2947 2945 2943 2941 2939 2938 2937 2935 2934 2933 2933 2932 2932 2931 2931 2930 2929 2928 2928 2927 2926 2926 2926 2926 2925 2924 2924 2923 2923 2922 2922 2922 2921 2921 2920 2920 2919 2919 2919 2918 2918 2917 2916 2915 2913 2912 2911 2910 2909 2908 2907 2906 2905 2904 2903 2902 2900 2899 2898 2898 2897 2896 2895 2895 2894 2893 2892 2892 2891 2890 2889 2888 2888 2887 2886 2886 2885 2884 2883 2883 2882
2950 2949 2948 2946 2944 2942 2940 2939 2937 2935 2934 2933 2932 2931 2930 2929 2929 2928 2928 2928 2927 2927 2926 2925 2924 2924 2924 2924 2923 2923 2923 2922 2921 2921 2920 2919 2919 2919 2918 2918 2918 2917 2917 2917 2916 2916 2915 2914 2913 2912 2911 2909 2908 2907 2906 2906 2905 2903 2902 2901 2900 2899 2898 2897 2896 2896 2895 2894 2893 2893 2892 2891 2890 2889 2888 2888 2887 2886 2886 2885 2884 2883 2883 2882 2881 2881
2946 2944 2943 2941 2939 2938 2936 2935 2933 2932 2931 2929 2928 2927 2927 2926 2926 2926 2925 2925 2924 2924 2923 2923 2922 2921 2921 2921 2921 2921 2920 2919 2919 2918 2918 2917 2917 2917 2916 2916 2915 2915 2914 2914 2914 2914 2913 2912 2912 2911 2909 2908 2907 2906 2905 2904 2903 2902 2901 2899 2898 2897 2897 2896 2895 2894 2893 2893 2892 2891 2891 2890 2889 2888 2887 2886 2885 2885 2884 2883 2883 2882 2881 2880 2880 2879
2942 2940 2939 2937 2936 2934 2933 2931 2929 2928 2927 2926 2925 2924 2923 2923 2923 2923 2922 2922 2922 2922 2921 2920 2919 2919 2918 2918 2918 2918 2918 2917 2916 2916 2916 2915 2915 2914 2914 2913 2913 2913 2912 2912 2912 2912 2911 2911 2910 2909 2908 2907 2906 2904 2903 2902 2901 2900 2899 2898 2897 2896 2895 2895 2894 2893 2893 2892 2891 2890 2889 2888 2888 2887 2886 2885 2884 2883 2882 2881 2881 2880 2879 2879 2878 2877
2938 2936 2935 2933 2932 2930 2929 2927 2926 2925 2924 2923 2922 2921 2920 2920 2919 2919 2919 2919 2919 2919 2918 2918 2917 2917 2916 2916 2915 2915 2915 2914 2914 2914 2914 2913 2913 2912 2911 2911 2911 2910 2910 2910 2910 2909 2909 2909 2908 2908 2907 2905 2904 2903 2902 2901 2900 2899 2898 2896 2895 2894 2894 2893 2893 2892 2891 2891 2890 2889 2888 2887 2886 2885 2884 2883 2883 2882 2881 2880 2879 2878 2878 2877 2876 2875
2934 2932 2931 2929 2928 2927 2925 2924 2923 2923 2922 2920 2919 2918 2918 2917 2916 2916 2915 2916 2916 2916 2916 2915 2915 2914 2914 2913 2913 2913 2912 2912 2912 2913 2912 2911 2910 2910 2909 2909 2908 2908 2908 2908 2908 2907 2907 2907 2907 2906 2905 2904 2903 2902 2901 2899 2898 2897 2896 2895 2894 2893 2893 2892 2892 2891 2890 2890 2889 2888 2887 2886 2885 2884 2883 2882 2881 2880 2879 2878 2878 2877 2876 2875 2874 2874
2930 2928 2927 2926 2924 2923 2922 2922 2921 2920 2919 2918 2917 2916 2915 2914 2914 2913 2913 2913 2913 2913 2913 2913 2913 2912 2912 2911 2911 2910 2910 2910 2910 2910 2910 2909 2908 2908 2908 2907 2907 2906 2906 2906 2905 2905 2905 2905 2905 2904 2904 2903 2902 2901 2899 2898 2897 2896 2894 2893 2893 2892 2892 2891 2890 2890 2889 2888 2888 2887 2886 2885 2884 2883 2882 2881 2880 2879 2878 2877 2876 2875 2874 2874 2873 2873
2926 2925 2923 2922 2921 2920 2920 2919 2918 2918 2917 2916 2915 2914 2913 2913 2912 2912 2912 2912 2912 2911 2911 2911 2910 2910 2910 2909 2909 2909 2908 2908 2908 2908 2908 2908 2907 2906 2906 2906 2905 2905 2904 2904 2903 2903 2903 2903 2903 2903 2902 2902 2901 2900 2898 2897 2895 2894 2893 2892 2891 2891 2890 2890 2889 2889 2888 2888 2887 2886 2885 2884 2883 2882 2881 2880 2878 2878 2877 2876 2875 2874 2873 2872 2872 2871
2923 2922 2921 2920 2919 2918 2918 2917 2916 2915 2915 2914 2913 2913 2912 2912 2911 2911 2911 2910 2910 2910 2909 2909 2909 2908 2908 2908 2907 2907 2907 2907 2907 2906 2906 2906 2906 2905 2905 2904 2904 2903 2903 2902 2902 2901 2901 2901 2901 2901 2900 2900 2899 2898 2897 2896 2894 2893 2891 2891 2890 2889 2889 2889 2888 2888 2887 2887 2886 2885 2884 2883 2882 2881 2880 2878 2878 2877 2876 2875 2874 2873 2872 2871 2870 2870
2921 2920 2919 2918 2917 2917 2916 2915 2914 2914 2913 2913 2912 2912 2911 2911 2910 2910 2910 2909 2909 2909 2908 2908 2908 2907 2907 2906 2906 2906 2905 2905 2905 2905 2905 2905 2904 2903 2903 2903 2902 2902 2901 2901 2900 2899 2899 2899 2899 2899 2898 2898 2898 2897 2896 2895 2893 2891 2890 2889 2888 2888 2888 2888 2888 2887 2886 2886 2885 2884 2883 2882 2881 2880 2879 2878 2877 2876 2875 2874 2873 2872 2871 2870 2869 2868
2919 2918 2917 2917 2916 2915 2914 2914 2913 2913 2913 2912 2911 2911 2910 2910 2909 2909 2909 2908 2908 2908 2907 2907 2906 2906 2905 2905 2905 2905 2904 2904 2904 2904 2903 2903 2903 2902 2902 2901 2901 2900 2900 2899 2898 2898 2898 2898 2897 2897 2897 2897 2896 2896 2895 2893 2892 2890 2889 2888 2887 2887 2887 2887 2887 2886 2886 2885 2884 2883 2882 2881 2880 2879 2878 2877 2876 2875 2874 2873 2872 2871 2869 2868 2868 2867
2918 2917 2916 2916 2915 2914 2914 2913 2913 2912 2912 2912 2911 2910 2910 2909 2909 2908 2908 2908 2908 2907 2906 2906 2905 2905 2904 2904 2904 2904 2903 2903 2903 2903 2902 2902 2901 2901 2900 2900 2899 2899 2898 2898 2897 2897 2897 2896 2896 2896 2895 2895 2895 2894 2894 2892 2891 2889 2888 2887 2886 2886 2886 2886 2885 2885 2885 2884 2883 2882 2881 2880 2879 2878 2876 2875 2874 2873 2873 2872 2870 2869 2868 2868 2867 2866
2916 2916 2915 2915 2914 2914 2913 2913 2913 2912 2912 2911 2911 2910 2909 2909 2909 2908 2908 2908 2907 2907 2906 2906 2905 2904 2904 2904 2903 2903 2903 2902 2902 2901 2901 2900 2900 2899 2899 2898 2898 2897 2897 2896 2896 2896 2895 2895 2895 2894 2894 2893 2893 2893 2892 2891 2890 2888 2887 2886 2885 2885 2885 2885 2884 2884 2883 2883 2882 2881 2880 2879 2878 2876 2875 2874 2873 2872 2871 2870 2869 2868 2868 2867 2866 2865
2916 2915 2915 2914 2914 2913 2913 2913 2912 2912 2912 2911 2911 2910 2910 2909 2909 2908 2908 2908 2907 2907 2906 2906 2905 2904 2904 2903 2903 2903 2902 2902 2901 2900 2900 2899 2899 2898 2898 2897 2897 2896 2896 2895 2895 2894 2894 2894 2893 2893 2893 2893 2892 2891 2890 2889 2888 2887 2886 2886 2885 2884 2884 2884 2883 2883 2883 2882 2881 2880 2879 2878 2876 2875 2874 2873 2872 2871 2870 2869 2868 2868 2867 2866 2865 2865
2916 2915 2915 2914 2914 2913 2913 2913 2912 2912 2912 2911 2911 2910 2910 2909 2909 2908 2908 2908 2907 2907 2906 2906 2905 2904 2904 2903 2903 2902 2902 2901 2900 2900 2899 2899 2898 2898 2897 2897 2896 2896 2895 2895 2894 2893 2893 2893 2892 2892 2891 2891 2891 2890 2889 2888 2887 2886 2886 2885 2885 2884 2884 2883 2883 2882 2882 2881 2880 2879 2878 2876 2875 2874 2873 2871 2870 2869 2869 2868 2868 2867 2866 2865 2865 2864
2916 2915 2915 2914 2914 2913 2913 2913 2912 2912 2912 2911 2911 2910 2910 2910 2909 2909 2908 2908 2907 2907 2906 2905 2905 2904 2903 2903 2903 2902 2901 2901 2900 2899 2899 2898 2898 2897 2897 2896 2896 2895 2895 2894 2893 2893 2892 2892 2891 2891 2890 2890 2889 2888 2887 2886 2886 2885 2885 2885 2884 2884 2883 2883 2882 2882 2881 2880 2879 2878 2877 2875 2874 2873 2872 2870 2869 2868 2868 2867 2866 2866 2865 2865 2864 2864
2916 2915 2915 2914 2914 2913 2913 2913 2913 2912 2912 2912 2911 2911 2910 2910 2909 2909 2908 2908 2907 2907 2906 2905 2905 2904 2903 2903 2902 2901 2901 2900 2899 2899 2898 2898 2897 2897 2896 2896 2895 2894 2894 2893 2893 2892 2891 2891 2890 2889 2889 2888 2888 2887 2886 2885 2885 2884 2884 2884 2884 2883 2883 2882 2882 2881 2880 2879 2878 2877 2875 2874 2873 2872 2871 2869 2868 2867 2866 2866 2865 2865 2864 2864 2863 2863
2916 2915 2915 2914 2914 2914 2914 2913 2913 2913 2913 2912 2912 2911 2911 2910 2910 2909 2908 2908 2907 2907 2906 2905 2904 2903 2903 2902 2901 2900 2900 2899 2898 2898 2897 2897 2896 2896 2895 2894 2894 2893 2893 2892 2891 2891 2890 2889 2889 2888 2888 2887 2887 2886 2885 2885 2884 2884 2884 2883 2883 2883 2883 2882 2881 2880 2879 2878 2877 2875 2874 2873 2872 2871 2870 2868 2867 2866 2866 2865 2865 2864 2864 2863 2863 2863
2916 2916 2915 2915 2915 2914 2914 2914 2913 2913 2913 2913 2912 2912 2911 2911 2910 2909 2909 2908 2907 2907 2906 2905 2904 2903 2903 2902 2901 2900 2899 2898 2897 2897 2896 2895 2895 2894 2894 2893 2893 2892 2891 2891 2890 2889 2889 2888 2888 2887 2887 2886 2886 2885 2885 2884 2884 2883 2883 2883 2882 2882 2882 2881 2880 2879 2878 2877 2876 2875 2873 2873 2871 2870 2869 2868 2867 2866 2865 2865 2864 2864 2863 2863 2863 2863
2916 2916 2916 2915 2915 2915 2914 2914 2914 2913 2913 2913 2912 2912 2911 2911 2910 2909 2909 2908 2907 2907 2906 2905 2904 2903 2903 2902 2900 2899 2898 2897 2896 2895 2895 2894 2893 2893 2893 2892 2891 2890 2890 2889 2889 2888 2888 2887 2887 2886 2886 2885 2885 2885 2884 2884 2884 2883 2883 2882 2882 2881 2881 2880 2879 2878 2878 2876 2875 2874 2873 2872 2871 2870 2868 2867 2866 2865 2865 2864 2864 2863 2863 2863 2863 2862
2917 2916 2916 2916 2915 2915 2915 2914 2914 2913 2913 2913 2912 2912 2912 2911 2910 2910 2909 2908 2907 2907 2906 2905 2904 2903 2903 2901 2900 2899 2898 2898 2896 2895 2894 2893 2893 2892 2891 2891 2890 2889 2889 2888 2888 2888 2887 2886 2886 2886 2885 2885 2884 2884 2884 2883 2883 2883 2882 2882 2881 2880 2880 2879 2878 2878 2877 2876 2875 2873 2873 2872 2870 2869 2868 2867 2866 2865 2865 2864 2864 2863 2863 2863 2863 2862
2917 2917 2916 2916 2916 2916 2915 2915 2914 2914 2913 2913 2912 2912 2912 2911 2910 2910 2909 2908 2907 2906 2905 2904 2903 2903 2902 2901 2900 2899 2898 2897 2896 2895 2894 2893 2892 2891 2890 2890 2889 2888 2888 2888 2887 2887 2886 2886 2886 2885 2885 2885 2884 2884 2884 2883 2883 2883 2882 2881 2881 2880 2879 2878 2878 2877 2876 2875 2874 2873 2872 2871 2870 2869 2868 2867 2866 2865 2865 2864 2864 2863 2863 2863 2863 2863
2918 2917 2917 2917 2916 2916 2915 2915 2914 2914 2913 2913 2912 2912 2912 2911 2910 2910 2909 2908 2907 2906 2905 2904 2903 2902 2901 2900 2899 2898 2897 2897 2896 2895 2893 2892 2891 2890 2890 2889 2888 2888 2887 2887 2886 2886 2886 2886 2885 2885 2885 2885 2885 2884 2883 2883 2883 2882 2882 2881 2880 2880 2879 2878 2877 2876 2875 2875 2874 2873 2872 2871 2870 2869 2868 2867 2866 2865 2865 2864 2864 2864 2863 2863 2863 2863
2918 2918 2917 2917 2916 2916 2915 2915 2914 2914 2913 2913 2912 2912 2912 2911 2910 2909 2908 2908 2907 2906 2905 2903 2902 2901 2900 2898 2898 2897 2896 2896 2895 2894 2893 2892 2891 2890 2889 2888 2888 2887 2887 2887 2886 2886 2886 2886 2886 2885 2885 2885 2885 2884 2883 2883 2882 2882 2881 2881 2880 2879 2878 2878 2877 2876 2875 2874 2873 2873 2872 2871 2870 2869 2868 2867 2866 2866 2865 2864 2864 2864 2863 2863 2863 2863
2918 2918 2917 2917 2917 2916 2916 2915 2915 2914 2913 2913 2913 2912 2911 2911 2910 2909 2908 2908 2906 2905 2904 2903 2902 2900 2899 2898 2897 2896 2895 2895 2894 2893 2892 2891 2890 2890 2889 2888 2888 2888 2887 2887 2887 2886 2886 2886 2886 2886 2885 2885 2884 2884 2883 2883 2882 2882 2881 2880 2880 2879 2878 2877 2877 2876 2875 2874 2873 2872 2871 2870 2869 2868 2868 2867 2867 2866 2865 2865 2864 2864 2864 2864 2863 2863
2918 2918 2918 2918 2917 2917 2916 2916 2915 2914 2914 2913 2913 2912 2911 2911 2910 2909 2908 2907 2906 2905 2903 2902 2901 2900 2898 2897 2896 2895 2895 2894 2894 2893 2892 2891 2890 2889 2889 2888 2888 2888 2888 2887 2887 2887 2887 2886 2886 2886 2885 2885 2884 2884 2883 2883 2882 2882 2881 2880 2879 2879 2878 2877 2876 2876 2875 2874 2873 2872 2871 2870 2869 2868 2868 2867 2867 2866 2866 2865 2865 2865 2864 2864 2864 2863
2919 2919 2918 2918 2918 2917 2917 2916 2915 2915 2914 2913 2913 2912 2911 2910 2910 2909 2908 2907 2905 2904 2903 2901 2900 2898 2898 2896 2895 2895 2894 2894 2893 2893 2891 2891 2890 2890 2889 2889 2888 2888 2888 2888 2888 2887 2887 2886 2886 2886 2885 2885 2885 2884 2883 2883 2882 2882 2881 2880 2879 2878 2878 2877 2876 2875 2875 2874 2873 2872 2871 2870 2869 2869 2868 2868 2867 2867 2866 2866 2866 2865 2865 2865 2864 2864